Location: *
(46.4000°N, 12.6667°E)
Time: 04:47:41
(UTC+00:00)

Envisat - Pass Details

Date: 04 December 2021
Orbit: 764 x 766 km, 98.2° (Epoch: 16 January)

Event Time Altitude Azimuth Distance (km) Brightness Sun altitude
Rises 16:49:34 0° 219° (SW) 3,222 7.2 -14.3°
Reaches altitude 10° 16:53:22 10° 249° (WSW) 2,303 6.9 -14.9°
Maximum altitude 16:55:27 12° 273° (W) 2,139 6.4 -15.3°
Drops below altitude 10° 16:57:33 10° 298° (WNW) 2,311 6.1 -15.6°
Sets 17:01:24 0° 327° (NNW) 3,244 6.5 -16.2°
